Location: Kitchener-Waterloo
(43.4500°N, 80.5000°W)
Time: 23:23:20
(UTC-04:00)

Amateur Radio Satellites - All Passes

Search period start: 17 April 2015 22:53
Search period end: 18 April 2015 22:53
Location: Kitchener-Waterloo, 43.4500°N, 80.5000°W

Satellite Date Start Highest point End Downlink Frequencies (MHz)
Time Altitude Azimuth
DELFI C3 17 Apr 22:56:09 22:59:57 36° 263° (W) 23:03:45 145.870
VERMONT LUNAR 17 Apr 23:01:07 23:04:24 50° 176° (S) 23:07:41 437.305
HO-68 17 Apr 23:05:06 23:09:34 16° 274° (W) 23:13:39 435.675
Cosmos 2491 17 Apr 23:06:24 23:12:59 26° 82° (E) 23:19:54 435.465 / 435.565
HUMSAT D 17 Apr 23:08:14 23:12:24 81° 257° (WSW) 23:16:40 437.325/437.525
VELOX 1 17 Apr 23:10:45 23:15:06 66° 75° (ENE) 23:19:31 145.980
POLYITAN 1 17 Apr 23:15:03 23:16:21 11° 88° (E) 23:17:53 437.675
FUNcube-1 17 Apr 23:15:24 23:19:18 34° 264° (W) 23:23:16 145.935
ANTELSAT 17 Apr 23:16:41 23:20:40 27° 94° (E) 23:24:40 437.575/2403.000
YUBILEINY 17 Apr 23:17:17 23:26:00 63° 77° (ENE) 23:34:39 435.215
AISAT 17 Apr 23:24:55 23:29:19 85° 257° (WSW) 23:33:44 437.250
DUCHIFAT 1 17 Apr 23:26:23 23:28:43 15° 90° (E) 23:31:14 145.980
ESTCUBE 1 17 Apr 23:32:38 23:37:06 61° 73° (ENE) 23:41:34 437.505/2401.250
CUBEBUG 2 17 Apr 23:34:44 23:37:20 15° 271° (W) 23:39:49 437.445
UKube-1 17 Apr 23:35:40 23:39:33 31° 264° (W) 23:43:24 .
QB50P1 17 Apr 23:37:25 23:40:32 20° 92° (E) 23:43:45 145.935-145.965
ZACube-1 17 Apr 23:37:58 23:41:13 20° 269° (W) 23:44:25 437.345
PHONESAT 2.4 17 Apr 23:39:40 23:43:08 48° 172° (S) 23:46:35 2401.200-2431.200
CUBEBUG 1 17 Apr 23:42:29 23:46:48 68° 74° (ENE) 23:51:07 437.445
RS-15 17 Apr 23:54:33 00:05:14 44° 37° (NE) 00:16:28 29.354- 29.394
Cosmos 2504 17 Apr 23:55:47 23:56:58 10° 48° (NE) 23:58:45 435.465 / 435.565
QB50P2 17 Apr 23:59:38 00:03:34 35° 97° (E) 00:07:31 145.880/145.840
BUGSAT 1 18 Apr 00:00:44 00:04:03 24° 94° (E) 00:07:27 437.445
SPROUT 18 Apr 00:02:33 00:06:14 30° 69° (ENE) 00:09:59 437.525
TISAT 1 18 Apr 00:06:14 00:09:42 26° 68° (ENE) 00:13:16 437.305
TIGRISAT 18 Apr 00:10:59 00:15:45 90° 287° (WNW) 00:20:28 435.000
UNISAT 6 18 Apr 00:11:09 00:15:54 87° 284° (WNW) 00:20:38 437.425
DX 1 18 Apr 00:18:51 00:20:22 11° 272° (W) 00:21:39 434.975-435.025
SO-50 18 Apr 00:19:33 00:23:40 26° 247° (WSW) 00:27:40 436.795
50 SAT 18 Apr 00:20:59 00:23:54 19° 268° (W) 00:26:47 437.505
POPSAT HIP 1 18 Apr 00:22:58 00:27:14 62° 101° (E) 00:31:28 437.405
NANOSAT C BR1 18 Apr 00:23:54 00:28:09 63° 101° (E) 00:32:23 145.865
O/OREOS (USA 219) 18 Apr 00:38:31 00:43:02 60° 110° (ESE) 00:47:33 437.305
VERMONT LUNAR 18 Apr 00:38:32 00:41:44 39° 192° (SSW) 00:44:53 437.305
POLYITAN 1 18 Apr 00:48:31 00:52:48 68° 286° (WNW) 00:57:05 437.675
ITUPSAT 1 18 Apr 00:48:33 00:51:12 15° 62° (ENE) 00:54:01 437.325
VELOX 1 18 Apr 00:50:20 00:52:13 12° 272° (W) 00:53:53 145.980
ANTELSAT 18 Apr 00:53:12 00:57:30 34° 291° (WNW) 01:01:44 437.575/2403.000
Cosmos 2491 18 Apr 01:00:28 01:09:09 70° 282° (WNW) 01:17:55 435.465 / 435.565
DUCHIFAT 1 18 Apr 01:00:45 01:04:55 51° 287° (WNW) 01:09:03 145.980
ESTCUBE 1 18 Apr 01:11:59 01:14:27 14° 271° (W) 01:16:42 437.505/2401.250
QB50P1 18 Apr 01:12:36 01:16:35 38° 289° (WNW) 01:20:31 145.935-145.965
YUBILEINY 18 Apr 01:14:59 01:22:18 29° 277° (W) 01:29:18 435.215
PHONESAT 2.4 18 Apr 01:17:45 01:21:12 46° 189° (S) 01:24:37 2401.200-2431.200
AIST 1 18 Apr 01:21:41 01:23:58 15° 86° (E) 01:26:27
CUBEBUG 1 18 Apr 01:22:07 01:23:43 11° 272° (W) 01:25:04 437.445
BEESAT 18 Apr 01:23:21 01:27:32 32° 68° (ENE) 01:31:47 436.000
SWISSCUBE 18 Apr 01:24:11 01:28:29 35° 69° (ENE) 01:32:51 437.505
QB50P2 18 Apr 01:35:55 01:39:18 22° 293° (WNW) 01:42:36 145.880/145.840
BUGSAT 1 18 Apr 01:35:58 01:39:33 29° 291° (WNW) 01:43:07 437.445
SPROUT 18 Apr 01:38:45 01:42:21 25° 266° (W) 01:45:53 437.525
TISAT 1 18 Apr 01:41:50 01:45:27 27° 265° (W) 01:49:03 437.305
Oscar 19 18 Apr 01:43:09 01:46:12 16° 89° (E) 01:49:29 437.125/150
Cosmos 2504 18 Apr 01:44:55 01:53:04 53° 74° (ENE) 02:00:39 435.465 / 435.565
TIGRISAT 18 Apr 01:50:06 01:51:51 12° 300° (WNW) 01:53:22 435.000
UNISAT 6 18 Apr 01:50:25 01:52:01 11° 300° (WNW) 01:53:23 437.425
POPSAT HIP 1 18 Apr 02:00:24 02:02:40 14° 297° (WNW) 02:04:47 437.405
NANOSAT C BR1 18 Apr 02:01:22 02:03:32 14° 297° (WNW) 02:05:34 145.865
KKS-1 18 Apr 02:05:53 02:08:31 16° 63° (ENE) 02:11:19 437.445
RS-15 18 Apr 02:07:07 02:18:33 70° 242° (WSW) 02:30:27 29.354- 29.394
VERMONT LUNAR 18 Apr 02:16:49 02:18:47 15° 208° (SSW) 02:20:42 437.305
O/OREOS (USA 219) 18 Apr 02:19:46 02:22:54 17° 309° (NW) 02:25:56 437.305
ITUPSAT 1 18 Apr 02:23:48 02:28:36 70° 259° (WSW) 02:33:25 437.325
PHONESAT 2.4 18 Apr 02:56:23 02:59:03 20° 205° (SSW) 03:01:40 2401.200-2431.200
AIST 1 18 Apr 02:57:02 03:01:15 49° 282° (WNW) 03:05:29
BEESAT 18 Apr 03:01:09 03:05:23 30° 265° (W) 03:09:34 436.000
SWISSCUBE 18 Apr 03:02:18 03:06:25 27° 266° (W) 03:10:27 437.505
Cosmos 2491 18 Apr 03:03:07 03:08:06 15° 306° (NW) 03:12:37 435.465 / 435.565
Gurwin Techsat 1B 18 Apr 03:14:58 03:19:37 31° 95° (E) 03:24:20 435.225
STARS 18 Apr 03:19:49 03:24:05 56° 73° (ENE) 03:28:25 437.465
Oscar 19 18 Apr 03:20:56 03:26:07 66° 287° (WNW) 03:31:16 437.125/150
ITAMSAT 1 18 Apr 03:36:07 03:41:13 55° 100° (E) 03:46:17 435.822/435.867
Cosmos 2504 18 Apr 03:38:55 03:46:08 33° 275° (W) 03:52:44 435.465 / 435.565
GONETS M04 18 Apr 03:39:03 03:45:33 23° 60° (ENE) 03:52:20
KKS-1 18 Apr 03:40:25 03:44:46 56° 260° (W) 03:49:09 437.445
AO-7 18 Apr 03:42:56 03:45:47 12° 83° (E) 03:49:20 29.400- 29.500
JAS-2 18 Apr 04:12:43 04:17:06 19° 84° (E) 04:21:26 435.910
HORYU 2 18 Apr 04:13:34 04:17:06 23° 93° (E) 04:20:41 437.375
DANDE 18 Apr 04:16:15 04:19:16 14° 62° (ENE) 04:23:01 436.750
RS-15 18 Apr 04:22:33 04:29:17 16° 261° (W) 04:35:13 29.354- 29.394
BEESAT 3 18 Apr 04:31:36 04:33:22 13° 110° (ESE) 04:35:21 437.485
CUSAT 1 18 Apr 04:32:12 04:37:20 24° 67° (ENE) 04:43:28 437.405
M-CUBED/EXP-1 PRIME 18 Apr 04:40:50 04:42:51 13° 54° (NE) 04:45:04 437.505
MOZHAYETS 4 18 Apr 04:40:58 04:45:20 41° 71° (ENE) 04:49:44
Gurwin Techsat 1B 18 Apr 04:54:49 04:59:39 36° 292° (WNW) 05:04:26 435.225
STARS 18 Apr 04:58:33 05:00:59 14° 271° (W) 05:03:14 437.465
ITAMSAT 1 18 Apr 05:16:32 05:20:22 21° 297° (WNW) 05:24:04 435.822/435.867
AUBIESAT-1 18 Apr 05:28:53 05:32:56 30° 62° (ENE) 05:37:08 437.475
AO-7 18 Apr 05:32:06 05:40:24 68° 104° (ESE) 05:48:42 29.400- 29.500
GONETS M04 18 Apr 05:34:48 05:43:42 84° 263° (W) 05:52:32
HORYU 2 18 Apr 05:49:43 05:53:54 37° 290° (WNW) 05:58:01 437.375
STRAND 1 18 Apr 05:49:49 05:51:35 12° 58° (ENE) 05:53:37 437.568
CUBESAT XI-V 18 Apr 05:54:17 05:57:40 21° 66° (ENE) 06:01:10 437.345
JAS-2 18 Apr 05:56:15 06:03:13 75° 287° (WNW) 06:09:16 435.910
DANDE 18 Apr 05:56:59 06:03:22 72° 78° (ENE) 06:11:23 436.750
BEESAT 2 18 Apr 05:57:04 06:01:12 84° 119° (ESE) 06:05:22 435.950
AIST 2 18 Apr 06:05:01 06:08:52 34° 116° (ESE) 06:12:47 435.215
BEESAT 3 18 Apr 06:06:51 06:10:56 65° 306° (NW) 06:15:03 437.485
M-CUBED/EXP-1 PRIME 18 Apr 06:12:18 06:16:59 84° 69° (ENE) 06:21:52 437.505
CUSAT 1 18 Apr 06:13:53 06:20:33 75° 262° (W) 06:28:36 437.405
MOZHAYETS 4 18 Apr 06:19:09 06:22:45 21° 268° (W) 06:26:16
Cosmos 2499 18 Apr 06:32:15 06:39:55 43° 71° (ENE) 06:47:04 435.465 / 435.565
PRISM 18 Apr 06:54:13 06:58:18 55° 73° (ENE) 07:02:25 437.425
CUTE-I 18 Apr 07:01:42 07:06:18 30° 95° (E) 07:10:57 437.470
AUBIESAT-1 18 Apr 07:03:19 07:07:36 35° 259° (W) 07:12:01 437.475
Cubesat XI-IV 18 Apr 07:08:33 07:13:22 35° 96° (E) 07:18:13 437.490
STRAND 1 18 Apr 07:24:57 07:30:05 83° 73° (ENE) 07:35:14 437.568
AO-7 18 Apr 07:25:39 07:32:41 31° 304° (NW) 07:39:34 29.400- 29.500
CUBESAT XI-V 18 Apr 07:30:23 07:34:52 44° 262° (W) 07:39:19 437.345
GONETS M04 18 Apr 07:33:52 07:39:21 18° 283° (WNW) 07:44:20
BEESAT 2 18 Apr 07:37:25 07:39:55 15° 323° (NW) 07:42:20 435.950
DANDE 18 Apr 07:41:17 07:46:27 23° 270° (W) 07:52:10 436.750
JAS-2 18 Apr 07:43:15 07:47:03 15° 308° (NW) 07:50:21 435.910
AIST 2 18 Apr 07:43:44 07:47:30 29° 315° (NW) 07:51:16 435.215
BEESAT 3 18 Apr 07:48:21 07:49:49 11° 327° (NNW) 07:51:11 437.485
M-CUBED/EXP-1 PRIME 18 Apr 07:50:43 07:52:33 12° 269° (W) 07:54:07 437.505
CUSAT 1 18 Apr 07:59:08 08:02:50 14° 274° (W) 08:06:17 437.405
Cosmos 2499 18 Apr 08:25:38 08:33:03 40° 273° (W) 08:39:50 435.465 / 435.565
BRITE-PL 18 Apr 08:30:03 08:32:51 16° 90° (E) 08:35:58 437.365/2234.400
PRISM 18 Apr 08:32:00 08:34:11 13° 270° (W) 08:36:10 437.425
CUTE-I 18 Apr 08:41:35 08:46:29 37° 292° (WNW) 08:51:18 437.470
HO-68 18 Apr 08:41:58 08:45:54 16° 86° (E) 08:50:14 435.675
Cubesat XI-IV 18 Apr 08:48:44 08:53:27 33° 293° (WNW) 08:58:06 437.490
GOMX 1 18 Apr 09:00:30 09:04:07 21° 92° (E) 09:08:03 467.674
STRAND 1 18 Apr 09:07:53 09:10:02 12° 273° (W) 09:11:54 437.568
O/OREOS (USA 219) 18 Apr 09:09:08 09:12:04 17° 51° (NE) 09:15:07 437.305
Cosmos 2491 18 Apr 09:15:02 09:18:51 14° 52° (NE) 09:23:15 435.465 / 435.565
COMPASS 1 18 Apr 09:16:33 09:18:17 13° 88° (E) 09:20:15 437.405
CANX-2 18 Apr 09:21:25 09:24:52 24° 93° (E) 09:28:22 2200.000
SEEDS 18 Apr 09:27:33 09:30:44 21° 92° (E) 09:34:00 437.485
CUTE 1.7 + AOD 2 18 Apr 09:31:43 09:35:24 27° 94° (E) 09:39:06 437.475
TIGRISAT 18 Apr 09:38:10 09:39:07 11° 60° (ENE) 09:40:17 435.000
UNISAT 6 18 Apr 09:38:14 09:39:27 11° 60° (ENE) 09:40:55 437.425
CUBEBUG 2 18 Apr 09:48:16 09:49:30 11° 86° (E) 09:51:02 437.445
PCSat 18 Apr 09:55:18 09:59:23 23° 108° (ESE) 10:03:38 145.827
AAUSAT CUBESAT 2 18 Apr 10:04:40 10:08:34 36° 97° (E) 10:12:27 437.432
BRITE-PL 18 Apr 10:07:03 10:11:46 63° 286° (WNW) 10:16:51 437.365/2234.400
Oscar 11 18 Apr 10:08:08 10:11:15 19° 91° (E) 10:14:29 145.826/435.025
POLYITAN 1 18 Apr 10:10:15 10:11:21 11° 62° (ENE) 10:12:41 437.675
DOVE 4 18 Apr 10:17:01 10:21:55 77° 102° (ESE) 10:27:05 437.250
ANTELSAT 18 Apr 10:17:05 10:20:47 27° 67° (ENE) 10:24:38 437.575/2403.000
DUCHIFAT 1 18 Apr 10:20:48 10:22:51 14° 63° (ENE) 10:25:04 145.980
CINEMA 3 18 Apr 10:26:25 10:31:09 51° 99° (E) 10:36:01 145.822/145.860
HO-68 18 Apr 10:27:31 10:34:47 87° 106° (ESE) 10:41:59 435.675
YUBILEINY 18 Apr 10:28:59 10:32:22 13° 75° (ENE) 10:36:24 435.215
DX 1 18 Apr 10:29:13 10:30:01 11° 87° (E) 10:31:07 434.975-435.025
UWE-3 18 Apr 10:30:17 10:34:06 25° 93° (E) 10:37:59 435.000/436.395/437.385
QB50P1 18 Apr 10:31:53 10:34:43 18° 66° (ENE) 10:37:41 145.935-145.965
DELFI C3 18 Apr 10:34:41 10:38:08 27° 95° (E) 10:41:37 145.870
GOMX 1 18 Apr 10:37:48 10:42:29 48° 287° (WNW) 10:47:26 467.674
O/OREOS (USA 219) 18 Apr 10:47:30 10:51:57 58° 250° (WSW) 10:56:20 437.305
COMPASS 1 18 Apr 10:50:16 10:54:28 59° 286° (WNW) 10:58:36 437.405
HUMSAT D 18 Apr 10:52:28 10:55:04 16° 90° (E) 10:57:50 437.325/437.525
BUGSAT 1 18 Apr 10:52:33 10:55:29 20° 67° (ENE) 10:58:31 437.445
QB50P2 18 Apr 10:53:53 10:57:34 31° 69° (ENE) 11:01:20 145.880/145.840
CANX-2 18 Apr 10:57:00 11:00:52 32° 290° (WNW) 11:04:40 2200.000
FUNcube-1 18 Apr 11:02:08 11:06:28 41° 97° (E) 11:10:49 145.935
VELOX 1 18 Apr 11:02:27 11:03:48 11° 87° (E) 11:05:24 145.980
SEEDS 18 Apr 11:02:45 11:06:42 36° 289° (WNW) 11:10:34 437.485
CUTE 1.7 + AOD 2 18 Apr 11:07:35 11:11:17 28° 291° (WNW) 11:14:55 437.475
Cosmos 2491 18 Apr 11:09:18 11:18:03 64° 77° (ENE) 11:26:49 435.465 / 435.565
TIGRISAT 18 Apr 11:10:44 11:15:11 90° 7° (N) 11:19:45 435.000
UNISAT 6 18 Apr 11:11:08 11:15:34 87° 257° (WSW) 11:20:10 437.425
AISAT 18 Apr 11:15:39 11:18:28 17° 91° (E) 11:21:27 437.250
POPSAT HIP 1 18 Apr 11:16:51 11:20:56 53° 73° (ENE) 11:25:04 437.405
NANOSAT C BR1 18 Apr 11:17:32 11:21:38 54° 73° (ENE) 11:25:45 145.865
UKube-1 18 Apr 11:21:39 11:25:41 37° 98° (E) 11:29:44 .
CUBEBUG 2 18 Apr 11:22:07 11:26:52 82° 282° (WNW) 11:31:38 437.445
ZACube-1 18 Apr 11:23:53 11:28:29 71° 102° (ESE) 11:33:06 437.345
ESTCUBE 1 18 Apr 11:26:32 11:27:56 12° 87° (E) 11:29:36 437.505/2401.250
CUBEBUG 1 18 Apr 11:32:31 11:33:49 11° 87° (E) 11:35:21 437.445
PCSat 18 Apr 11:37:09 11:42:28 55° 306° (NW) 11:47:49 145.827
AAUSAT CUBESAT 2 18 Apr 11:40:47 11:44:00 21° 293° (WNW) 11:47:05 437.432
POLYITAN 1 18 Apr 11:42:31 11:46:43 78° 258° (WSW) 11:50:59 437.675
Oscar 11 18 Apr 11:43:33 11:47:39 40° 289° (WNW) 11:51:42 145.826/435.025
ANTELSAT 18 Apr 11:53:29 11:57:29 32° 265° (W) 12:01:33 437.575/2403.000
DUCHIFAT 1 18 Apr 11:54:07 11:58:15 59° 259° (W) 12:02:25 145.980
50 SAT 18 Apr 11:55:56 11:59:52 47° 99° (E) 12:03:48 437.505
DOVE 4 18 Apr 11:56:28 11:59:13 15° 297° (WNW) 12:01:49 437.250
DX 1 18 Apr 12:02:32 12:06:53 74° 285° (WNW) 12:11:13 434.975-435.025
CINEMA 3 18 Apr 12:04:26 12:08:03 21° 294° (WNW) 12:11:37 145.822/145.860
QB50P1 18 Apr 12:06:19 12:10:19 42° 262° (W) 12:14:21 145.935-145.965
UWE-3 18 Apr 12:06:25 12:10:43 36° 290° (WNW) 12:14:59 435.000/436.395/437.385
DELFI C3 18 Apr 12:09:50 12:13:14 25° 291° (WNW) 12:16:32 145.870
HO-68 18 Apr 12:16:34 12:21:43 21° 305° (NW) 12:26:38 435.675
YUBILEINY 18 Apr 12:19:00 12:27:43 70° 94° (E) 12:36:31 435.215
HUMSAT D 18 Apr 12:26:57 12:31:10 49° 287° (WNW) 12:35:21 437.325/437.525
BUGSAT 1 18 Apr 12:27:05 12:30:47 34° 263° (W) 12:34:29 437.445
QB50P2 18 Apr 12:30:04 12:33:32 24° 266° (W) 12:36:56 145.880/145.840
VELOX 1 18 Apr 12:36:32 12:40:57 71° 286° (WNW) 12:45:21 145.980
FUNcube-1 18 Apr 12:39:00 12:42:34 22° 293° (WNW) 12:46:04 145.935
BEESAT 2 18 Apr 12:39:01 12:40:45 12° 34° (NE) 12:42:36 435.950
BEESAT 3 18 Apr 12:47:48 12:50:20 16° 38° (NE) 12:52:56 437.485
AISAT 18 Apr 12:51:06 12:55:24 48° 288° (WNW) 12:59:40 437.250
POPSAT HIP 1 18 Apr 12:54:57 12:57:14 14° 271° (W) 12:59:20 437.405
NANOSAT C BR1 18 Apr 12:55:40 12:57:53 14° 271° (W) 12:59:56 145.865
UKube-1 18 Apr 12:58:17 13:01:38 22° 294° (WNW) 13:04:54 .
Oscar 19 18 Apr 13:00:47 13:04:59 27° 66° (ENE) 13:09:20 437.125/150
ESTCUBE 1 18 Apr 13:00:55 13:05:25 71° 285° (WNW) 13:09:53 437.505/2401.250
CUBEBUG 2 18 Apr 13:01:44 13:02:53 11° 300° (WNW) 13:03:47 437.445
ZACube-1 18 Apr 13:01:53 13:04:21 14° 297° (WNW) 13:06:38 437.345
AIST 1 18 Apr 13:02:58 13:07:02 42° 77° (ENE) 13:11:05
CUBEBUG 1 18 Apr 13:06:25 13:10:45 69° 286° (WNW) 13:15:04 437.445
Cosmos 2491 18 Apr 13:07:02 13:14:23 30° 277° (W) 13:21:29 435.465 / 435.565
ITAMSAT 1 18 Apr 13:19:08 13:21:34 14° 59° (ENE) 13:24:14 435.822/435.867
SPROUT 18 Apr 13:23:24 13:27:36 49° 99° (E) 13:31:49 437.525
TISAT 1 18 Apr 13:24:38 13:28:37 40° 98° (E) 13:32:38 437.305
PCSat 18 Apr 13:24:45 13:27:13 13° 328° (NNW) 13:29:31 145.827
50 SAT 18 Apr 13:31:49 13:34:23 16° 295° (WNW) 13:36:48 437.505
BEESAT 2 18 Apr 14:15:30 14:19:40 74° 55° (NE) 14:23:44 435.950
YUBILEINY 18 Apr 14:18:02 14:25:28 28° 296° (WNW) 14:32:39 435.215
Cosmos 2504 18 Apr 14:23:10 14:31:17 45° 88° (E) 14:39:34 435.465 / 435.565
ITUPSAT 1 18 Apr 14:23:44 14:27:46 27° 94° (E) 14:31:52 437.325
BEESAT 3 18 Apr 14:24:46 14:28:53 75° 238° (WSW) 14:32:55 437.485
AIST 2 18 Apr 14:25:34 14:29:28 34° 47° (NE) 14:33:20 435.215
RS-15 18 Apr 14:26:22 14:31:32 16° 99° (E) 14:37:35 29.354- 29.394
JAS-2 18 Apr 14:27:05 14:30:42 15° 52° (NE) 14:34:41 435.910
SO-50 18 Apr 14:33:59 14:38:39 83° 123° (ESE) 14:43:29 436.795
Gurwin Techsat 1B 18 Apr 14:37:02 14:42:11 55° 71° (ENE) 14:47:23 435.225
Oscar 19 18 Apr 14:39:21 14:44:11 40° 262° (W) 14:49:03 437.125/150
AIST 1 18 Apr 14:41:38 14:44:23 16° 273° (W) 14:46:58
AO-7 18 Apr 14:42:17 14:48:27 25° 53° (NE) 14:54:50 29.400- 29.500
ISS 18 Apr 14:54:31 14:56:53 19° 135° (SE) 14:59:19 145.825
ITAMSAT 1 18 Apr 14:55:13 15:00:25 87° 250° (WSW) 15:05:40 435.822/435.867
BEESAT 18 Apr 14:59:29 15:04:14 64° 102° (ESE) 15:08:57 436.000
SPROUT 18 Apr 15:00:31 15:03:21 17° 295° (WNW) 15:06:04 437.525
SWISSCUBE 18 Apr 15:00:33 15:05:20 71° 102° (ESE) 15:10:05 437.505
TISAT 1 18 Apr 15:01:04 15:04:11 20° 294° (WNW) 15:07:11 437.305
HORYU 2 18 Apr 15:13:08 15:16:44 25° 67° (ENE) 15:20:27 437.375
KKS-1 18 Apr 15:30:45 15:34:27 25° 94° (E) 15:38:13 437.445
BEESAT 2 18 Apr 15:55:54 15:57:15 11° 251° (WSW) 15:58:23 435.950
ITUPSAT 1 18 Apr 16:01:25 16:05:44 34° 292° (WNW) 16:09:58 437.325
AIST 2 18 Apr 16:04:21 16:07:58 27° 245° (WSW) 16:11:27 435.215
JAS-2 18 Apr 16:06:47 16:14:23 60° 70° (ENE) 16:22:03 435.910
Cosmos 2504 18 Apr 16:16:21 16:24:45 45° 288° (WNW) 16:33:07 435.465 / 435.565
SO-50 18 Apr 16:16:28 16:19:52 19° 324° (NW) 16:23:14 436.795
Gurwin Techsat 1B 18 Apr 16:18:38 16:22:34 20° 270° (W) 16:26:22 435.225
ISS 18 Apr 16:29:47 16:33:01 59° 331° (NNW) 16:36:16 145.825
RS-15 18 Apr 16:31:19 16:42:03 72° 119° (ESE) 16:53:07 29.354- 29.394
AO-7 18 Apr 16:32:07 16:40:25 85° 252° (WSW) 16:48:46 29.400- 29.500
BEESAT 18 Apr 16:38:38 16:41:37 16° 298° (WNW) 16:44:26 436.000
ITAMSAT 1 18 Apr 16:39:27 16:40:49 11° 274° (W) 16:41:49 435.822/435.867
SWISSCUBE 18 Apr 16:39:59 16:42:41 15° 299° (WNW) 16:45:11 437.505
GONETS M04 18 Apr 16:43:07 16:49:23 24° 81° (E) 16:56:01
STARS 18 Apr 16:44:36 16:49:04 84° 284° (WNW) 16:53:31 437.465
HORYU 2 18 Apr 16:49:10 16:53:16 34° 264° (W) 16:57:21 437.375
KKS-1 18 Apr 17:07:07 17:11:09 33° 291° (WNW) 17:15:07 437.445
JAS-2 18 Apr 17:52:57 17:59:48 32° 269° (W) 18:06:33 435.910
ISS 18 Apr 18:07:18 18:09:53 21° 351° (N) 18:12:28 145.825
MOZHAYETS 4 18 Apr 18:11:46 18:16:25 85° 100° (E) 18:21:00
CUTE-I 18 Apr 18:24:34 18:29:44 55° 72° (ENE) 18:34:57 437.470
AO-7 18 Apr 18:29:10 18:34:35 18° 273° (W) 18:39:31 29.400- 29.500
Cubesat XI-IV 18 Apr 18:31:37 18:36:53 64° 73° (ENE) 18:42:11 437.490
GONETS M04 18 Apr 18:36:38 18:45:23 77° 280° (W) 18:54:15
PCSat 18 Apr 18:40:55 18:45:29 27° 45° (NE) 18:50:07 145.827
AUBIESAT-1 18 Apr 18:44:40 18:47:28 17° 94° (E) 18:50:17 437.475
RS-15 18 Apr 18:45:10 18:55:23 41° 325° (NW) 19:05:48 29.354- 29.394
Cosmos 2499 18 Apr 19:09:08 19:16:49 36° 86° (E) 19:24:37 435.465 / 435.565
HO-68 18 Apr 19:13:15 19:17:11 16° 52° (NE) 19:21:25 435.675
DANDE 18 Apr 19:13:30 19:16:20 68° 98° (E) 19:19:51 436.750
CUBESAT XI-V 18 Apr 19:25:50 19:30:10 40° 97° (E) 19:34:31 437.345
CUSAT 1 18 Apr 19:25:59 19:28:58 50° 286° (WNW) 19:32:47 437.405
M-CUBED/EXP-1 PRIME 18 Apr 19:28:21 19:32:49 57° 105° (ESE) 19:36:54 437.505
STRAND 1 18 Apr 19:34:55 19:39:04 25° 93° (E) 19:43:18 437.568
BRITE-PL 18 Apr 19:43:16 19:45:50 17° 65° (ENE) 19:48:33 437.365/2234.400
ISS 18 Apr 19:44:25 19:47:02 22° 11° (N) 19:49:39 145.825
MOZHAYETS 4 18 Apr 19:51:19 19:53:01 12° 299° (WNW) 19:54:30
CUTE-I 18 Apr 20:06:16 20:10:14 20° 269° (W) 20:14:02 437.470
COMPASS 1 18 Apr 20:10:07 20:11:23 11° 62° (ENE) 20:12:52 437.405
PRISM 18 Apr 20:10:51 20:14:59 79° 101° (E) 20:19:05 437.425
GOMX 1 18 Apr 20:10:56 20:14:00 21° 66° (ENE) 20:17:14 467.674
Cubesat XI-IV 18 Apr 20:13:57 20:17:32 17° 271° (W) 20:20:54 437.490
CANX-2 18 Apr 20:15:54 20:19:04 21° 67° (ENE) 20:22:21 2200.000
AUBIESAT-1 18 Apr 20:18:20 20:22:40 48° 294° (WNW) 20:26:39 437.475
SEEDS 18 Apr 20:21:19 20:24:10 18° 66° (ENE) 20:27:10 437.485
PCSat 18 Apr 20:23:57 20:29:14 53° 245° (WSW) 20:34:28 145.827
CUTE 1.7 + AOD 2 18 Apr 20:26:00 20:29:25 24° 68° (ENE) 20:32:55 437.475
VERMONT LUNAR 18 Apr 20:34:10 20:36:41 20° 156° (SSE) 20:39:14 437.305
GONETS M04 18 Apr 20:38:32 20:44:07 17° 305° (NW) 20:49:18
CUBEBUG 2 18 Apr 20:49:02 20:49:47 11° 60° (ENE) 20:50:47 437.445
HO-68 18 Apr 20:56:42 21:03:50 73° 71° (ENE) 21:11:03 435.675
AAUSAT CUBESAT 2 18 Apr 20:56:46 21:00:25 29° 69° (ENE) 21:04:08 437.432
Cosmos 2499 18 Apr 21:01:01 21:09:43 56° 285° (WNW) 21:18:18 435.465 / 435.565
RS-15 18 Apr 21:03:12 21:11:51 25° 358° (N) 21:20:46 29.354- 29.394
CUBESAT XI-V 18 Apr 21:03:50 21:07:24 22° 294° (WNW) 21:10:53 437.345
M-CUBED/EXP-1 PRIME 18 Apr 21:04:12 21:07:12 17° 303° (WNW) 21:09:57 437.505
Oscar 11 18 Apr 21:04:28 21:07:26 19° 66° (ENE) 21:10:33 145.826/435.025
STRAND 1 18 Apr 21:13:40 21:18:27 41° 291° (WNW) 21:23:11 437.568
BRITE-PL 18 Apr 21:20:09 21:24:07 43° 262° (W) 21:28:07 437.365/2234.400
ISS 18 Apr 21:20:35 21:23:51 67° 31° (NNE) 21:27:05 145.825
PHONESAT 2.4 18 Apr 21:22:32 21:25:06 19° 154° (SSE) 21:27:42 2401.200-2431.200
DELFI C3 18 Apr 21:23:52 21:26:54 21° 67° (ENE) 21:30:02 145.870
DOVE 4 18 Apr 21:24:24 21:28:33 85° 77° (ENE) 21:32:52 437.250
SO-50 18 Apr 21:24:42 21:28:15 20° 37° (NE) 21:31:53 436.795
DX 1 18 Apr 21:26:00 21:27:40 12° 62° (ENE) 21:29:32 434.975-435.025
UWE-3 18 Apr 21:29:09 21:32:26 22° 66° (ENE) 21:35:54 435.000/436.395/437.385
CINEMA 3 18 Apr 21:29:43 21:33:47 49° 72° (ENE) 21:38:03 145.822/145.860
COMPASS 1 18 Apr 21:42:18 21:46:32 76° 259° (W) 21:50:48 437.405
HUMSAT D 18 Apr 21:46:26 21:48:29 14° 63° (ENE) 21:50:44 437.325/437.525
GOMX 1 18 Apr 21:48:12 21:52:00 34° 264° (W) 21:55:51 467.674
PRISM 18 Apr 21:48:59 21:49:55 10° 299° (WNW) 21:50:37 437.425
CANX-2 18 Apr 21:50:46 21:54:47 38° 263° (W) 21:58:50 2200.000
SEEDS 18 Apr 21:55:36 21:59:41 44° 262° (W) 22:03:48 437.485
FUNcube-1 18 Apr 21:59:15 22:03:07 35° 70° (ENE) 22:07:08 145.935
CUTE 1.7 + AOD 2 18 Apr 22:01:19 22:05:13 32° 265° (W) 22:09:06 437.475
VELOX 1 18 Apr 22:01:27 22:03:28 13° 62° (ENE) 22:05:41 145.980
VERMONT LUNAR 18 Apr 22:10:34 22:13:49 45° 172° (S) 22:17:05 437.305
AISAT 18 Apr 22:14:59 22:17:59 19° 65° (ENE) 22:21:07 437.250
UKube-1 18 Apr 22:17:40 22:21:38 37° 70° (ENE) 22:25:39 .
ZACube-1 18 Apr 22:20:59 22:25:12 62° 74° (ENE) 22:29:33 437.345
Cosmos 2491 18 Apr 22:21:24 22:24:39 13° 75° (ENE) 22:28:34 435.465 / 435.565
CUBEBUG 2 18 Apr 22:21:34 22:25:49 86° 256° (WSW) 22:30:16 437.445
ESTCUBE 1 18 Apr 22:27:22 22:29:37 14° 62° (ENE) 22:32:03 437.505/2401.250
YUBILEINY 18 Apr 22:28:06 22:36:00 37° 68° (ENE) 22:43:57 435.215
CUBEBUG 1 18 Apr 22:30:16 22:31:59 12° 62° (ENE) 22:33:53 437.445
AAUSAT CUBESAT 2 18 Apr 22:32:31 22:36:03 25° 266° (W) 22:39:33 437.432
Oscar 11 18 Apr 22:39:10 22:43:20 44° 262° (W) 22:47:32 145.826/435.025
50 SAT 18 Apr 22:42:44 22:46:16 32° 70° (ENE) 22:49:54 437.505
